STAR ONE C3

Last updated on Sun Apr 12 2026 00:02:53 GMT+0000 (Coordinated Universal Time)

1 38991U 12062A 26101.50587066 -.00000248 00000+0 00000+0 0 9991 2 38991 0.0167 252.8538 0002550 150.7428 263.2434 1.00272209 49097
UTC large
Height (km)
Speed (km/s)
/
Latitude / Longitude
Inclination (degrees)
Orbital Period (minutes)
Azimuth
Elevation
Range (km)
Doppler Factor

Next 0 passes for location: London (51.5072 / 0.1276)

Sorry there are no passes over London.
STAR ONE C3